When you browse on this site, cookies collect data to enhance your experience and personalize the content and advertising you see.
Visit our Privacy Policy to learn more. By continuing to use the site, you agree to this use of cookies and data.
  • In Hungary
  • List of Countries
  • For 7 days
  • Water Temperature
  • Satellite Maps
  • Weather Map
  • News
  • Weather Widgets
  • user-avatar
    Login

    Hourly Weather Zavire

    Today, 19 January, Saturday

    Time Temperature Precipitation Wind Pressure Humidity
    00:00 -14°C° 0 mm 3 mps 732 mmHg 95%
    01:00 -14°C° 0 mm 3 mps 732 mmHg 95%
    02:00 -14°C° 0 mm 3 mps 733 mmHg 95%
    03:00 -13°C° 0 mm 3 mps 733 mmHg 94%
    04:00 -11°C° 0 mm 4 mps 733 mmHg 93%
    05:00 -10°C° 0 mm 4 mps 733 mmHg 92%
    06:00 -10°C° 0.1 mm 4 mps 733 mmHg 92%
    07:00 -9°C° 0.1 mm 4 mps 734 mmHg 92%
    08:00 -9°C° 0.1 mm 4 mps 734 mmHg 92%
    09:00 -9°C° 0.2 mm 4 mps 735 mmHg 90%
    10:00 -9°C° 0.2 mm 4 mps 735 mmHg 88%
    11:00 -9°C° 0.2 mm 4 mps 736 mmHg 86%
    12:00 -10°C° 0 mm 4 mps 736 mmHg 87%
    13:00 -10°C° 0 mm 4 mps 736 mmHg 87%
    14:00 -10°C° 0 mm 4 mps 737 mmHg 88%
    15:00 -10°C° 0 mm 3 mps 737 mmHg 90%
    16:00 -12°C° 0 mm 3 mps 737 mmHg 91%
    17:00 -12°C° 0 mm 2 mps 738 mmHg 93%
    18:00 -12°C° 0 mm 3 mps 738 mmHg 93%
    19:00 -9°C° 0 mm 3 mps 738 mmHg 93%
    20:00 -8°C° 0 mm 3 mps 738 mmHg 93%
    21:00 -9°C° 0 mm 4 mps 738 mmHg 92%
    22:00 -8°C° 0 mm 4 mps 738 mmHg 91%
    23:00 -8°C° 0 mm 4 mps 738 mmHg 90%

    Tomorrow, 20 January, Sunday

    Time Temperature Precipitation Wind Pressure Humidity
    00:00 -8°C° 0 mm 4 mps 738 mmHg 90%
    01:00 -10°C° 0 mm 5 mps 737 mmHg 90%
    02:00 -10°C° 0 mm 5 mps 737 mmHg 89%
    03:00 -10°C° 0.2 mm 5 mps 737 mmHg 89%
    04:00 -9°C° 0.2 mm 6 mps 736 mmHg 89%
    05:00 -9°C° 0.2 mm 6 mps 735 mmHg 89%
    06:00 -8°C° 0.3 mm 6 mps 735 mmHg 89%
    07:00 -6°C° 0.3 mm 6 mps 735 mmHg 89%
    08:00 -6°C° 0.3 mm 6 mps 734 mmHg 90%
    09:00 -6°C° 0.5 mm 6 mps 735 mmHg 88%
    10:00 -7°C° 0.5 mm 5 mps 735 mmHg 87%
    11:00 -7°C° 0.5 mm 4 mps 735 mmHg 86%
    12:00 -7°C° 0.1 mm 4 mps 735 mmHg 85%
    13:00 -8°C° 0.1 mm 4 mps 735 mmHg 85%
    14:00 -8°C° 0.1 mm 4 mps 735 mmHg 85%
    15:00 -8°C° 0.1 mm 4 mps 735 mmHg 86%
    16:00 -9°C° 0.1 mm 4 mps 735 mmHg 87%
    17:00 -8°C° 0.1 mm 3 mps 736 mmHg 89%
    18:00 -9°C° 0 mm 3 mps 736 mmHg 90%
    19:00 -12°C° 0 mm 3 mps 736 mmHg 91%
    20:00 -12°C° 0 mm 2 mps 736 mmHg 93%
    21:00 -13°C° 0 mm 2 mps 737 mmHg 94%
    22:00 -14°C° 0 mm 3 mps 737 mmHg 95%
    23:00 -15°C° 0 mm 3 mps 737 mmHg 96%

    Day after tomorrow, 21 January, Monday

    Time Temperature Precipitation Wind Pressure Humidity
    00:00 -15°C° 0 mm 3 mps 738 mmHg 95%
    01:00 -14°C° 0 mm 3 mps 738 mmHg 94%
    02:00 -14°C° 0 mm 3 mps 738 mmHg 94%
    03:00 -14°C° 0 mm 3 mps 738 mmHg 94%
    04:00 -15°C° 0 mm 3 mps 738 mmHg 94%
    05:00 -15°C° 0 mm 3 mps 738 mmHg 95%
    06:00 -15°C° 0 mm 3 mps 738 mmHg 95%
    07:00 -15°C° 0 mm 3 mps 739 mmHg 95%
    08:00 -15°C° 0 mm 3 mps 739 mmHg 95%
    09:00 -15°C° 0 mm 3 mps 739 mmHg 94%
    10:00 -14°C° 0 mm 3 mps 739 mmHg 93%
    11:00 -15°C° 0 mm 4 mps 740 mmHg 91%
    12:00 -13°C° 0 mm 3 mps 740 mmHg 90%
    13:00 -13°C° 0 mm 3 mps 740 mmHg 89%
    14:00 -13°C° 0 mm 3 mps 740 mmHg 88%
    15:00 -14°C° 0 mm 3 mps 740 mmHg 90%
    16:00 -14°C° 0 mm 3 mps 741 mmHg 93%
    17:00 -14°C° 0 mm 2 mps 741 mmHg 95%
    18:00 -15°C° 0 mm 2 mps 741 mmHg 96%
    19:00 -15°C° 0 mm 2 mps 741 mmHg 96%
    20:00 -16°C° 0 mm 2 mps 741 mmHg 97%
    21:00 -16°C° 0 mm 2 mps 741 mmHg 98%
    22:00 -17°C° 0 mm 2 mps 741 mmHg 98%
    23:00 -15°C° 0 mm 1 mps 741 mmHg 98%

    22 January, Tuesday

    Time Temperature Precipitation Wind Pressure Humidity
    00:00 -15°C° 0 mm 1 mps 741 mmHg 98%
    01:00 -15°C° 0 mm 1 mps 741 mmHg 98%
    02:00 -15°C° 0 mm 1 mps 741 mmHg 98%
    03:00 -15°C° 0 mm 1 mps 741 mmHg 98%
    04:00 -15°C° 0 mm 1 mps 741 mmHg 98%
    05:00 -15°C° 0 mm 0 mps 741 mmHg 98%
    06:00 -15°C° 0 mm 0 mps 741 mmHg 98%
    07:00 -15°C° 0 mm 0 mps 741 mmHg 98%
    08:00 -15°C° 0 mm 1 mps 741 mmHg 98%
    09:00 -14°C° 0 mm 1 mps 741 mmHg 97%
    10:00 -13°C° 0 mm 1 mps 741 mmHg 97%
    11:00 -11°C° 0 mm 1 mps 741 mmHg 96%
    12:00 -11°C° 0 mm 1 mps 741 mmHg 95%
    13:00 -10°C° 0 mm 1 mps 741 mmHg 95%
    14:00 -10°C° 0 mm 1 mps 741 mmHg 94%
    15:00 -11°C° 0 mm 1 mps 741 mmHg 94%
    16:00 -11°C° 0 mm 1 mps 741 mmHg 95%
    17:00 -12°C° 0 mm 1 mps 741 mmHg 95%
    18:00 -12°C° 0 mm 1 mps 741 mmHg 95%
    19:00 -13°C° 0 mm 1 mps 741 mmHg 96%
    20:00 -13°C° 0 mm 1 mps 741 mmHg 96%
    21:00 -13°C° 0 mm 1 mps 741 mmHg 96%
    22:00 -13°C° 0 mm 1 mps 741 mmHg 96%
    23:00 -13°C° 0 mm 1 mps 741 mmHg 96%

    23 January, Wednesday

    Time Temperature Precipitation Wind Pressure Humidity
    00:00 -14°C° 0 mm 1 mps 741 mmHg 97%
    01:00 -15°C° 0 mm 1 mps 741 mmHg 97%
    02:00 -15°C° 0 mm 1 mps 741 mmHg 97%
    03:00 -15°C° 0 mm 1 mps 740 mmHg 98%
    04:00 -14°C° 0 mm 1 mps 740 mmHg 98%
    05:00 -14°C° 0 mm 1 mps 740 mmHg 98%
    06:00 -15°C° 0 mm 2 mps 740 mmHg 97%
    07:00 -13°C° 0 mm 2 mps 740 mmHg 97%
    08:00 -12°C° 0 mm 2 mps 741 mmHg 96%
    09:00 -10°C° 0 mm 2 mps 741 mmHg 96%
    10:00 -9°C° 0 mm 2 mps 741 mmHg 96%
    11:00 -8°C° 0 mm 2 mps 741 mmHg 95%
    12:00 -7°C° 0.1 mm 2 mps 741 mmHg 94%
    13:00 -7°C° 0.1 mm 3 mps 741 mmHg 93%
    14:00 -6°C° 0.1 mm 3 mps 741 mmHg 91%
    15:00 -7°C° 0 mm 3 mps 741 mmHg 92%
    16:00 -7°C° 0 mm 3 mps 741 mmHg 93%
    17:00 -7°C° 0 mm 2 mps 741 mmHg 93%
    18:00 -7°C° 0 mm 2 mps 741 mmHg 94%
    19:00 -8°C° 0 mm 2 mps 742 mmHg 94%
    20:00 -8°C° 0 mm 2 mps 742 mmHg 95%
    21:00 -9°C° 0 mm 2 mps 742 mmHg 95%
    22:00 -10°C° 0 mm 2 mps 742 mmHg 96%
    23:00 -12°C° 0 mm 2 mps 743 mmHg 97%

    24 January, Thursday

    Time Temperature Precipitation Wind Pressure Humidity
    00:00 -13°C° 0 mm 2 mps 743 mmHg 96%
    01:00 -14°C° 0 mm 2 mps 743 mmHg 94%
    02:00 -15°C° 0 mm 2 mps 743 mmHg 93%
    03:00 -15°C° 0 mm 2 mps 743 mmHg 91%
    04:00 -16°C° 0 mm 2 mps 743 mmHg 90%
    05:00 -17°C° 0 mm 2 mps 743 mmHg 88%
    06:00 -18°C° 0 mm 2 mps 743 mmHg 87%
    07:00 -18°C° 0 mm 2 mps 743 mmHg 86%
    08:00 -18°C° 0 mm 2 mps 744 mmHg 84%
    09:00 -17°C° 0 mm 2 mps 744 mmHg 82%
    10:00 -15°C° 0 mm 2 mps 744 mmHg 80%
    11:00 -14°C° 0 mm 2 mps 744 mmHg 78%
    12:00 -13°C° 0 mm 2 mps 743 mmHg 79%
    13:00 -13°C° 0 mm 2 mps 743 mmHg 81%
    14:00 -12°C° 0 mm 2 mps 743 mmHg 82%
    15:00 -14°C° 0 mm 3 mps 743 mmHg 83%
    16:00 -15°C° 0 mm 3 mps 742 mmHg 84%
    17:00 -16°C° 0 mm 3 mps 742 mmHg 85%
    18:00 -16°C° 0 mm 3 mps 742 mmHg 86%
    19:00 -16°C° 0 mm 3 mps 742 mmHg 88%
    20:00 -16°C° 0 mm 3 mps 742 mmHg 89%
    21:00 -16°C° 0 mm 3 mps 742 mmHg 90%
    22:00 -16°C° 0 mm 3 mps 742 mmHg 91%
    23:00 -16°C° 0 mm 3 mps 742 mmHg 93%
    Show more